Regional Weather Roundup
Issued by NWS

Home | Current Version | Previous Version | Text Only | Print | Product List | Glossary Off
Versions: 1 2 3 4 5 6 7 8 9 10 11 12 13 14 15 16 17 18 19 20 21 22 23 24 25 26 27 28 29 30 31 32 33 34 35 36 37 38 39 40 41 42 43 44 45 46 47 48 49 50

000
ASUS43 KBIS 311910
RWRND

NORTH DAKOTA REGIONAL WEATHER ROUNDUP
NATIONAL WEATHER SERVICE BISMARCK ND
200 PM CDT WED AUG 31 2016

NOTE: "FAIR" INDICATES FEW OR NO CLOUDS BELOW 12,000 FEET WITH NO
SIGNIFICANT WEATHER AND/OR OBSTRUCTIONS TO VISIBILITY.


NDZ001>003-009>011-017-312000-
NORTHWEST NORTH DAKOTA

CITY           SKY/WX    TMP DP  RH WIND       PRES   REMARKS
WILLISTON      SUNNY     88  57  34 S16G24    30.06F
MINOT          PTSUNNY   82  60  47 E21G29    30.15F
MINOT AFB      MOSUNNY   77  59  53 SE18      30.15F
$$

NDZ018>021-031>035-040>046-312000-
SOUTHWEST NORTH DAKOTA

CITY           SKY/WX    TMP DP  RH WIND       PRES   REMARKS
BISMARCK       CLOUDY    78  57  48 E16       30.20F
DICKINSON      SUNNY     88  51  28 S25G36    30.10F
GARRISON         N/A     82  60  47 SE18G28   30.15F
HETTINGER ARPT SUNNY     88  53  30 S24G31    30.15F
$$

NDZ004>008-012>016-024-026-027-054-312000-
NORTHEAST NORTH DAKOTA

CITY           SKY/WX    TMP DP  RH WIND       PRES   REMARKS
GRAND FORKS    MOSUNNY   75  53  46 NE8       30.24F
GRND FRKS AFB  SUNNY     74  53  48 NE7       30.25F
DEVILS LAKE    SUNNY     75  51  43 SE10      30.25F
$$

NDZ022-023-025-028>030-036>039-047>053-312000-
SOUTHEAST NORTH DAKOTA

CITY           SKY/WX    TMP DP  RH WIND       PRES   REMARKS
FARGO          SUNNY     79  51  37 N8        30.23S
JAMESTOWN      SUNNY     78  52  40 SE8       30.23S
$$





USA.gov is the U.S. government's official web portal to all federal, state and local government web resources and services.